Weather History for PHHI - September, 2012

Change the Weather History Date:

Sunday, September 30, 2012

  Actual Average Record
Temperature  
Mean Temperature 74 °F -  
Max Temperature 79 °F 81 °F 86 °F (1999)
Min Temperature 68 °F 68 °F 64 °F (1996)
Cooling Degree Days 8    
Growing Degree Days 24 (Base 50)    
Moisture  
Dew Point 66 °F    
Average Humidity 78    
Maximum Humidity 94    
Minimum Humidity 59    
Precipitation  
Precipitation 0.00 in - - ()
Sea Level Pressure  
Sea Level Pressure 29.95 in    
Wind  
Wind Speed 3 mph (NNW)    
Max Wind Speed 10 mph    
Max Gust Speed -    
Visibility 10 miles    
Events Rain    
Averages and records for this station are not official NWS values.
T = Trace of Precipitation, MM = Missing Value Source: NWS Daily Summary

Daily Weather History Graph

Daily Weather History Graph

Search for Another Location

Airport or City:

Trip Planner

Search our weather history database for the weather conditions in past years. The results will help you decide how hot, cold, wet, or windy it might be!

Date:

Astronomy

Sep. 30, 2012 Rise Set
Actual Time 6:23 AM HST 6:20 PM HST
Civil Twilight 6:01 AM HST 6:42 PM HST
Nautical Twilight 5:35 AM HST 7:08 PM HST
Astronomical Twilight 5:09 AM HST 7:33 PM HST
Moon 6:44 PM HST (9/30) 6:53 AM HST (9/30)
Length of Visible Light 12h 41m
Length of Day
11h 56m
Waxing Gibbous, 99% of the Moon is Illuminated
Sep 30
Waxing Gibbous
Oct 7
Last Quarter
Oct 15
New
Oct 21
First Quarter
Oct 29
Full

Hourly Weather History & Observations

Time (HST) Temp. Dew Point Humidity Pressure Visibility Wind Dir Wind Speed Gust Speed Precip Events Conditions
12:55 AM 70.5 °F 65.8 °F 85% 29.98 in 10.0 mi Calm Calm - N/A   Overcast
1:39 AM 69.8 °F 66.2 °F 88% 29.96 in 10.0 mi NNE 3.5 mph - N/A   Overcast
1:55 AM 70.5 °F 65.7 °F 85% 29.96 in 10.0 mi East 4.6 mph - N/A   Overcast
1:59 AM 69.8 °F 66.2 °F 88% 29.96 in 9.0 mi Variable 3.5 mph - N/A   Light Drizzle
2:05 AM 69.8 °F 66.2 °F 88% 29.96 in 7.0 mi SSE 4.6 mph - N/A   Light Drizzle
2:22 AM 69.8 °F 66.2 °F 88% 29.95 in 10.0 mi Calm Calm - N/A   Mostly Cloudy
2:55 AM 68.9 °F 65.5 °F 89% 29.94 in 10.0 mi Calm Calm - 0.00 in   Mostly Cloudy
3:20 AM 69.8 °F 66.2 °F 88% 29.93 in 10.0 mi Calm Calm - N/A   Mostly Cloudy
3:28 AM 69.8 °F 66.2 °F 88% 29.93 in 10.0 mi Calm Calm - N/A   Mostly Cloudy
3:30 AM 69.8 °F 66.2 °F 88% 29.93 in 10.0 mi Calm Calm - N/A   Overcast
3:42 AM 69.8 °F 66.2 °F 88% 29.93 in 10.0 mi Calm Calm - N/A   Overcast
3:44 AM 69.8 °F 66.2 °F 88% 29.93 in 10.0 mi Calm Calm - N/A   Overcast
3:49 AM 69.8 °F 66.2 °F 88% 29.93 in 10.0 mi Calm Calm - N/A   Mostly Cloudy
3:55 AM 68.9 °F 65.7 °F 89% 29.93 in 10.0 mi Calm Calm - N/A   Mostly Cloudy
4:55 AM 69.4 °F 66.2 °F 89% 29.94 in 10.0 mi NNE 3.5 mph - N/A   Overcast
5:55 AM 68.7 °F 65.5 °F 89% 29.95 in 10.0 mi Calm Calm - N/A   Overcast
5:56 AM 68.0 °F 66.2 °F 94% 29.95 in 9.0 mi Calm Calm - N/A Rain Light Rain
6:28 AM 69.8 °F 66.2 °F 88% 29.96 in 10.0 mi Calm Calm - N/A   Partly Cloudy
6:55 AM 68.5 °F 66.2 °F 92% 29.97 in 10.0 mi WNW 3.5 mph - 0.00 in   Mostly Cloudy
7:55 AM 73.6 °F 67.5 °F 81% 29.98 in 10.0 mi Calm Calm - N/A   Clear
8:55 AM 76.3 °F 65.8 °F 70% 29.99 in 10.0 mi Variable 5.8 mph - N/A   Clear
9:55 AM 78.4 °F 65.3 °F 64% 29.99 in 10.0 mi Variable 3.5 mph - N/A   Partly Cloudy
10:25 AM 77.0 °F 66.2 °F 69% 29.98 in 10.0 mi ENE 10.4 mph - N/A   Mostly Cloudy
10:55 AM 77.5 °F 64.9 °F 65% 29.97 in 10.0 mi Calm Calm - N/A   Overcast
11:06 AM 77.0 °F 64.4 °F 65% 29.97 in 10.0 mi SE 8.1 mph - N/A   Light Drizzle
11:10 AM 77.0 °F 64.4 °F 65% 29.97 in 10.0 mi East 5.8 mph - N/A   Light Drizzle
11:15 AM 77.0 °F 64.4 °F 65% 29.96 in 10.0 mi East 5.8 mph - N/A   Overcast
11:55 AM 78.8 °F 65.3 °F 63% 29.95 in 10.0 mi Variable 4.6 mph - 0.00 in   Overcast
1:55 PM 79.0 °F 63.3 °F 59% 29.91 in 10.0 mi Variable 6.9 mph - N/A   Overcast
2:55 PM 78.8 °F 63.5 °F 59% 29.90 in 10.0 mi Variable 5.8 mph - N/A   Overcast
4:55 PM 77.2 °F 65.3 °F 67% 29.91 in 10.0 mi NNW 5.8 mph - N/A   Overcast
5:01 PM 77.0 °F 64.4 °F 65% 29.91 in 10.0 mi North 5.8 mph - N/A   Overcast
5:21 PM 77.0 °F 64.4 °F 65% 29.91 in 10.0 mi NNW 8.1 mph - N/A   Overcast
5:24 PM 77.0 °F 64.4 °F 65% 29.91 in 10.0 mi NNW 8.1 mph - N/A   Overcast
5:25 PM 77.0 °F 64.4 °F 65% 29.91 in 10.0 mi NNW 8.1 mph - N/A   Overcast
5:50 PM 75.2 °F 64.4 °F 69% 29.91 in 10.0 mi NNW 8.1 mph - N/A   Overcast
5:55 PM 75.4 °F 65.1 °F 70% 29.91 in 10.0 mi NW 8.1 mph - N/A   Overcast
6:17 PM 75.2 °F 66.2 °F 73% 29.92 in 10.0 mi NNW 5.8 mph - N/A   Overcast
6:18 PM 75.2 °F 66.2 °F 73% 29.92 in 10.0 mi NNW 5.8 mph - N/A   Overcast
6:21 PM 75.2 °F 66.2 °F 73% 29.92 in 10.0 mi NNW 5.8 mph - N/A   Overcast
6:55 PM 74.3 °F 66.0 °F 75% 29.94 in 10.0 mi NNW 8.1 mph - N/A   Scattered Clouds
7:01 PM 73.4 °F 66.2 °F 78% 29.94 in 10.0 mi NNW 6.9 mph - N/A   Mostly Cloudy
7:21 PM 73.4 °F 66.2 °F 78% 29.95 in 10.0 mi NW 5.8 mph - N/A   Mostly Cloudy
7:23 PM 73.4 °F 66.2 °F 78% 29.95 in 10.0 mi Variable 5.8 mph - N/A   Mostly Cloudy
7:24 PM 73.4 °F 66.2 °F 78% 29.95 in 10.0 mi WNW 4.6 mph - N/A   Mostly Cloudy
7:42 PM 73.4 °F 66.2 °F 78% 29.96 in 10.0 mi NW 4.6 mph - N/A   Mostly Cloudy
7:55 PM 73.8 °F 66.7 °F 79% 29.96 in 10.0 mi Variable 4.6 mph - N/A   Overcast
8:55 PM 72.9 °F 66.7 °F 81% 29.97 in 10.0 mi Calm Calm - N/A   Mostly Cloudy
8:56 PM 73.4 °F 66.2 °F 78% 29.97 in 10.0 mi Calm Calm - N/A   Mostly Cloudy
9:55 PM 69.4 °F 65.3 °F 87% 29.98 in 10.0 mi WNW 4.6 mph - N/A   Clear
10:55 PM 69.4 °F 65.5 °F 87% 29.97 in 10.0 mi NW 3.5 mph - N/A   Overcast
11:55 PM 69.8 °F 65.7 °F 87% 29.96 in 10.0 mi NNW 3.5 mph - N/A   Partly Cloudy